| time (UTC) | temp C | wind direction | speed KPH | gust KPH | rain 1hr cm | rain 24hr cm | rain mn cm | humidity % | barometer mb |
| 20260507110017 | 11 | 288 | 0.0 | 0.0 | 0.00 | 0.03 | 0.00 | 92 | 1016.4 |
| 20260507105533 | 11 | 288 | 0.0 | 0.0 | 0.00 | 0.03 | 0.00 | 92 | 1016.5 |
| 20260507105027 | 11 | 288 | 0.0 | 0.0 | 0.00 | 0.03 | 0.00 | 91 | 1016.5 |
| 20260507104522 | 11 | 288 | 0.0 | 0.0 | 0.00 | 0.03 | 0.00 | 91 | 1016.5 |
| 20260507104018 | 11 | 288 | 0.0 | 0.0 | 0.00 | 0.03 | 0.00 | 91 | 1016.6 |
| 20260507103516 | 11 | 288 | 0.0 | 0.0 | 0.00 | 0.03 | 0.00 | 91 | 1016.6 |
| 20260507103031 | 11 | 288 | 0.0 | 0.0 | 0.00 | 0.03 | 0.00 | 91 | 1016.6 |
| 20260507102526 | 11 | 288 | 0.0 | 1.6 | 0.00 | 0.03 | 0.00 | 91 | 1016.6 |
| 20260507102021 | 11 | 288 | 0.0 | 1.6 | 0.00 | 0.03 | 0.00 | 91 | 1016.7 |
| 20260507101517 | 11 | 288 | 0.0 | 0.0 | 0.00 | 0.03 | 0.00 | 92 | 1016.7 |
| 20260507101031 | 11 | 288 | 0.0 | 0.0 | 0.00 | 0.03 | 0.00 | 91 | 1016.7 |
| 20260507100527 | 11 | 288 | 0.0 | 0.0 | 0.00 | 0.03 | 0.00 | 91 | 1016.6 |
| 20260507100022 | 11 | 288 | 0.0 | 0.0 | 0.00 | 0.03 | 0.00 | 91 | 1016.7 |
| 20260507095521 | 11 | 288 | 0.0 | 0.0 | 0.00 | 0.03 | 0.00 | 91 | 1016.7 |
| 20260507095016 | 11 | 288 | 0.0 | 0.0 | 0.00 | 0.03 | 0.00 | 91 | 1016.8 |
| 20260507094531 | 11 | 288 | 0.0 | 0.0 | 0.00 | 0.03 | 0.00 | 91 | 1016.7 |
| 20260507094027 | 11 | 288 | 0.0 | 0.0 | 0.00 | 0.03 | 0.00 | 91 | 1016.8 |
| 20260507093522 | 11 | 288 | 0.0 | 0.0 | 0.00 | 0.03 | 0.00 | 91 | 1016.9 |
| 20260507093016 | 11 | 288 | 0.0 | 0.0 | 0.00 | 0.03 | 0.00 | 90 | 1017.0 |
| 20260507092531 | 12 | 288 | 0.0 | 0.0 | 0.00 | 0.03 | 0.00 | 90 | 1017.0 |
| 20260507092026 | 12 | 288 | 0.0 | 0.0 | 0.00 | 0.03 | 0.00 | 90 | 1016.9 |
| 20260507091525 | 12 | 288 | 0.0 | 0.0 | 0.00 | 0.03 | 0.00 | 90 | 1017.0 |
| 20260507091020 | 12 | 288 | 0.0 | 0.0 | 0.00 | 0.03 | 0.00 | 90 | 1017.0 |
| 20260507090516 | 12 | 288 | 0.0 | 0.0 | 0.00 | 0.03 | 0.00 | 90 | 1017.1 |
| 20260507090050 | 12 | 288 | 0.0 | 0.0 | 0.00 | 0.03 | 0.00 | 90 | 1017.1 |
| 20260507085524 | 12 | 288 | 0.0 | 0.0 | 0.00 | 0.03 | 0.00 | 89 | 1017.1 |
| 20260507085020 | 12 | 288 | 0.0 | 0.0 | 0.00 | 0.03 | 0.00 | 89 | 1017.2 |
| 20260507084514 | 12 | 288 | 0.0 | 0.0 | 0.00 | 0.03 | 0.00 | 89 | 1017.3 |
| 20260507084029 | 12 | 288 | 0.0 | 0.0 | 0.00 | 0.03 | 0.00 | 89 | 1017.3 |
| 20260507083545 | 12 | 288 | 0.0 | 0.0 | 0.00 | 0.03 | 0.00 | 89 | 1017.4 |
| 20260507083022 | 12 | 288 | 0.0 | 0.0 | 0.00 | 0.03 | 0.00 | 90 | 1017.5 |
| 20260507082517 | 12 | 288 | 0.0 | 0.0 | 0.00 | 0.03 | 0.00 | 89 | 1017.5 |
| 20260507082013 | 12 | 288 | 0.0 | 1.6 | 0.00 | 0.03 | 0.00 | 89 | 1017.5 |
| 20260507081529 | 12 | 288 | 0.0 | 1.6 | 0.00 | 0.03 | 0.00 | 89 | 1017.5 |
| 20260507081023 | 12 | 288 | 0.0 | 0.0 | 0.00 | 0.03 | 0.00 | 89 | 1017.6 |
| 20260507080539 | 12 | 288 | 0.0 | 0.0 | 0.00 | 0.03 | 0.03 | 89 | 1017.6 |
| 20260507080012 | 12 | 288 | 0.0 | 0.0 | 0.00 | 0.03 | 0.03 | 88 | 1017.7 |
| 20260507075528 | 12 | 288 | 0.0 | 0.0 | 0.00 | 0.03 | 0.03 | 88 | 1017.6 |
| 20260507075026 | 13 | 288 | 0.0 | 0.0 | 0.00 | 0.03 | 0.03 | 88 | 1017.6 |
| 20260507074521 | 13 | 288 | 0.0 | 3.2 | 0.00 | 0.03 | 0.03 | 88 | 1017.6 |
| 20260507074017 | 13 | 288 | 0.0 | 3.2 | 0.00 | 0.03 | 0.03 | 88 | 1017.5 |
| 20260507073532 | 13 | 45 | 0.0 | 0.0 | 0.00 | 0.03 | 0.03 | 87 | 1017.6 |
| 20260507073026 | 13 | 45 | 0.0 | 3.2 | 0.00 | 0.03 | 0.03 | 87 | 1017.6 |
| 20260507072521 | 13 | 45 | 0.0 | 3.2 | 0.00 | 0.03 | 0.03 | 87 | 1017.6 |
| 20260507072016 | 13 | 57 | 0.0 | 3.2 | 0.00 | 0.03 | 0.03 | 87 | 1017.6 |
| 20260507071515 | 13 | 90 | 0.0 | 3.2 | 0.00 | 0.03 | 0.03 | 86 | 1017.7 |
| 20260507071029 | 13 | 336 | 0.0 | 0.0 | 0.00 | 0.03 | 0.03 | 86 | 1017.5 |
| 20260507070524 | 13 | 336 | 0.0 | 0.0 | 0.00 | 0.05 | 0.03 | 86 | 1017.7 |
| 20260507070018 | 13 | 336 | 0.0 | 0.0 | 0.00 | 0.05 | 0.03 | 86 | 1017.6 |
| 20260507065513 | 13 | 336 | 0.0 | 0.0 | 0.00 | 0.05 | 0.03 | 86 | 1017.8 |
| 20260507065049 | 13 | 336 | 0.0 | 0.0 | 0.00 | 0.05 | 0.03 | 86 | 1017.9 |
| 20260507064522 | 13 | 336 | 0.0 | 0.0 | 0.00 | 0.05 | 0.03 | 86 | 1018.0 |
| 20260507064017 | 13 | 336 | 0.0 | 0.0 | 0.00 | 0.05 | 0.03 | 86 | 1018.0 |
| 20260507063553 | 13 | 336 | 0.0 | 0.0 | 0.00 | 0.05 | 0.03 | 85 | 1018.1 |
| 20260507063026 | 13 | 336 | 0.0 | 0.0 | 0.00 | 0.05 | 0.03 | 85 | 1018.1 |
| 20260507062521 | 13 | 336 | 0.0 | 0.0 | 0.00 | 0.05 | 0.03 | 85 | 1018.0 |
| 20260507062020 | 14 | 336 | 0.0 | 0.0 | 0.00 | 0.05 | 0.03 | 85 | 1018.0 |
| 20260507061516 | 14 | 336 | 0.0 | 0.0 | 0.00 | 0.05 | 0.03 | 85 | 1018.0 |
| 20260507061031 | 14 | 336 | 0.0 | 0.0 | 0.00 | 0.05 | 0.03 | 85 | 1018.0 |
| 20260507060527 | 14 | 336 | 0.0 | 0.0 | 0.00 | 0.05 | 0.03 | 86 | 1018.0 |
| 20260507060021 | 14 | 336 | 0.0 | 0.0 | 0.00 | 0.05 | 0.03 | 85 | 1018.0 |
| 20260507055537 | 14 | 336 | 0.0 | 0.0 | 0.00 | 0.05 | 0.03 | 84 | 1018.0 |
| 20260507055032 | 15 | 336 | 0.0 | 0.0 | 0.00 | 0.05 | 0.03 | 85 | 1018.0 |
| 20260507054527 | 15 | 336 | 0.0 | 0.0 | 0.00 | 0.05 | 0.03 | 85 | 1018.0 |
| 20260507054047 | 15 | 336 | 0.0 | 0.0 | 0.00 | 0.05 | 0.03 | 84 | 1018.0 |
| 20260507053521 | 15 | 336 | 0.0 | 0.0 | 0.00 | 0.05 | 0.03 | 84 | 1017.9 |
| 20260507053036 | 15 | 336 | 0.0 | 0.0 | 0.00 | 0.05 | 0.03 | 84 | 1018.0 |
| 20260507052530 | 15 | 336 | 0.0 | 0.0 | 0.00 | 0.05 | 0.03 | 84 | 1018.0 |
| 20260507052025 | 15 | 336 | 0.0 | 0.0 | 0.00 | 0.05 | 0.03 | 84 | 1018.1 |
| 20260507051520 | 15 | 336 | 0.0 | 1.6 | 0.00 | 0.05 | 0.03 | 83 | 1018.1 |
| 20260507051015 | 15 | 336 | 0.0 | 1.6 | 0.00 | 0.05 | 0.03 | 83 | 1018.0 |
| 20260507050530 | 15 | 336 | 0.0 | 3.2 | 0.00 | 0.05 | 0.03 | 83 | 1018.0 |
| 20260507050029 | 15 | 336 | 1.6 | 3.2 | 0.00 | 0.05 | 0.03 | 83 | 1018.0 |
| 20260507045545 | 16 | 338 | 1.6 | 4.8 | 0.00 | 0.05 | 0.03 | 82 | 1018.0 |
| 20260507045019 | 16 | 5 | 3.2 | 6.4 | 0.00 | 0.05 | 0.03 | 82 | 1018.0 |
| 20260507044514 | 16 | 5 | 3.2 | 6.4 | 0.00 | 0.05 | 0.03 | 81 | 1017.9 |
| 20260507044029 | 16 | 24 | 3.2 | 4.8 | 0.00 | 0.05 | 0.03 | 81 | 1018.0 |
| 20260507043524 | 16 | 298 | 1.6 | 4.8 | 0.00 | 0.05 | 0.03 | 81 | 1017.9 |
| 20260507043019 | 16 | 307 | 1.6 | 4.8 | 0.00 | 0.05 | 0.03 | 81 | 1017.9 |
| 20260507042535 | 16 | 309 | 0.0 | 6.4 | 0.00 | 0.05 | 0.03 | 80 | 1017.9 |
| 20260507042029 | 16 | 319 | 1.6 | 8.0 | 0.00 | 0.05 | 0.03 | 80 | 1017.8 |
| 20260507041528 | 16 | 339 | 3.2 | 8.0 | 0.00 | 0.05 | 0.03 | 79 | 1017.9 |
| 20260507041024 | 16 | 316 | 3.2 | 8.0 | 0.00 | 0.05 | 0.03 | 79 | 1017.9 |
| 20260507040519 | 16 | 325 | 3.2 | 8.0 | 0.00 | 0.08 | 0.03 | 78 | 1017.9 |
| 20260507040013 | 16 | 317 | 4.8 | 8.0 | 0.00 | 0.08 | 0.03 | 78 | 1017.8 |
| 20260507035550 | 16 | 299 | 4.8 | 8.0 | 0.00 | 0.08 | 0.03 | 77 | 1017.7 |
| 20260507035023 | 16 | 279 | 1.6 | 6.4 | 0.00 | 0.08 | 0.03 | 76 | 1017.5 |
| 20260507034539 | 17 | 300 | 3.2 | 6.4 | 0.00 | 0.08 | 0.03 | 76 | 1017.6 |
| 20260507034014 | 17 | 271 | 1.6 | 4.8 | 0.00 | 0.08 | 0.03 | 76 | 1017.5 |
| 20260507033529 | 17 | 276 | 1.6 | 4.8 | 0.00 | 0.08 | 0.03 | 76 | 1017.5 |
| 20260507033028 | 17 | 304 | 0.0 | 3.2 | 0.00 | 0.08 | 0.03 | 74 | 1017.4 |
| 20260507032522 | 17 | 304 | 0.0 | 3.2 | 0.00 | 0.08 | 0.03 | 73 | 1017.3 |
| 20260507032017 | 17 | 262 | 0.0 | 4.8 | 0.00 | 0.08 | 0.03 | 72 | 1017.2 |
| 20260507031532 | 17 | 262 | 0.0 | 4.8 | 0.00 | 0.08 | 0.03 | 72 | 1017.2 |
| 20260507031027 | 17 | 5 | 0.0 | 6.4 | 0.00 | 0.08 | 0.03 | 71 | 1017.1 |
| 20260507030523 | 17 | 47 | 1.6 | 6.4 | 0.00 | 0.08 | 0.03 | 71 | 1017.0 |
| 20260507030016 | 17 | 355 | 0.0 | 9.7 | 0.00 | 0.08 | 0.03 | 71 | 1017.1 |
| 20260507025532 | 17 | 271 | 3.2 | 9.7 | 0.00 | 0.08 | 0.03 | 70 | 1017.0 |
| 20260507025027 | 17 | 14 | 3.2 | 8.0 | 0.00 | 0.08 | 0.03 | 70 | 1016.9 |
| 20260507024547 | 18 | 355 | 3.2 | 8.0 | 0.00 | 0.08 | 0.03 | 69 | 1016.9 |
| 20260507024041 | 18 | 320 | 0.0 | 9.7 | 0.00 | 0.08 | 0.03 | 69 | 1016.8 |
| 20260507023515 | 18 | 355 | 4.8 | 9.7 | 0.00 | 0.08 | 0.03 | 68 | 1016.7 |
| 20260507023030 | 18 | 317 | 6.4 | 9.7 | 0.00 | 0.08 | 0.03 | 68 | 1016.7 |
| 20260507022525 | 18 | 26 | 4.8 | 12.9 | 0.00 | 0.08 | 0.03 | 67 | 1016.7 |
| 20260507022020 | 18 | 340 | 3.2 | 12.9 | 0.00 | 0.08 | 0.03 | 66 | 1016.7 |
| 20260507021535 | 18 | 325 | 4.8 | 12.9 | 0.00 | 0.08 | 0.03 | 66 | 1016.7 |
| 20260507021029 | 18 | 301 | 1.6 | 9.7 | 0.00 | 0.08 | 0.03 | 65 | 1016.7 |
| 20260507020524 | 19 | 280 | 6.4 | 12.9 | 0.00 | 0.10 | 0.03 | 65 | 1016.6 |
| 20260507020023 | 19 | 296 | 4.8 | 14.5 | 0.00 | 0.10 | 0.03 | 63 | 1016.6 |
| 20260507015519 | 19 | 319 | 6.4 | 14.5 | 0.00 | 0.10 | 0.03 | 63 | 1016.5 |
| 20260507015014 | 19 | 286 | 8.0 | 12.9 | 0.00 | 0.10 | 0.03 | 62 | 1016.5 |
| 20260507014530 | 20 | 334 | 4.8 | 12.9 | 0.00 | 0.10 | 0.03 | 61 | 1016.4 |
| 20260507014024 | 20 | 304 | 4.8 | 16.1 | 0.00 | 0.10 | 0.03 | 60 | 1016.4 |
| 20260507013519 | 20 | 313 | 8.0 | 16.1 | 0.00 | 0.10 | 0.03 | 59 | 1016.5 |
| 20260507013014 | 20 | 42 | 3.2 | 9.7 | 0.00 | 0.10 | 0.03 | 60 | 1016.5 |
| 20260507012513 | 20 | 16 | 4.8 | 9.7 | 0.00 | 0.10 | 0.03 | 60 | 1016.4 |
| 20260507012028 | 20 | 334 | 3.2 | 12.9 | 0.00 | 0.10 | 0.03 | 60 | 1016.4 |
| 20260507011524 | 20 | 323 | 6.4 | 12.9 | 0.00 | 0.10 | 0.03 | 60 | 1016.4 |
| 20260507011040 | 21 | 308 | 4.8 | 12.9 | 0.00 | 0.10 | 0.03 | 59 | 1016.4 |
| 20260507010554 | 21 | 276 | 6.4 | 12.9 | 0.00 | 0.13 | 0.03 | 58 | 1016.5 |
| 20260507010028 | 21 | 295 | 4.8 | 11.3 | 0.00 | 0.13 | 0.03 | 58 | 1016.4 |
| 20260507005522 | 21 | 344 | 4.8 | 9.7 | 0.00 | 0.13 | 0.03 | 57 | 1016.4 |
| 20260507005017 | 21 | 19 | 3.2 | 12.9 | 0.00 | 0.13 | 0.03 | 58 | 1016.3 |
| 20260507004533 | 21 | 295 | 4.8 | 14.5 | 0.00 | 0.13 | 0.03 | 58 | 1016.3 |
| 20260507004028 | 21 | 313 | 6.4 | 14.5 | 0.00 | 0.13 | 0.03 | 58 | 1016.3 |
| 20260507003548 | 21 | 331 | 6.4 | 12.9 | 0.00 | 0.13 | 0.03 | 58 | 1016.3 |
| 20260507003023 | 21 | 23 | 4.8 | 17.7 | 0.00 | 0.13 | 0.03 | 59 | 1016.3 |
| 20260507002537 | 21 | 299 | 6.4 | 12.9 | 0.00 | 0.13 | 0.03 | 59 | 1016.3 |
| 20260507002032 | 21 | 355 | 3.2 | 16.1 | 0.00 | 0.13 | 0.03 | 59 | 1016.3 |
| 20260507001527 | 21 | 350 | 6.4 | 16.1 | 0.00 | 0.13 | 0.03 | 59 | 1016.1 |
| 20260507001023 | 21 | 19 | 4.8 | 20.9 | 0.00 | 0.13 | 0.03 | 60 | 1016.3 |
| 20260507000518 | 21 | 272 | 11.3 | 20.9 | 0.00 | 0.13 | 0.03 | 60 | 1016.1 |
| 20260507000053 | 21 | 321 | 8.0 | 14.5 | 0.00 | 0.13 | 0.03 | 60 | 1016.1 |
| 20260506235527 | 21 | 304 | 4.8 | 27.4 | 0.00 | 0.13 | 0.03 | 60 | 1016.2 |
| 20260506235026 | 21 | 284 | 11.3 | 27.4 | 0.00 | 0.13 | 0.03 | 60 | 1016.1 |
| 20260506234521 | 21 | 309 | 9.7 | 19.3 | 0.00 | 0.13 | 0.03 | 58 | 1016.1 |
| 20260506234017 | 21 | 5 | 4.8 | 14.5 | 0.00 | 0.13 | 0.03 | 58 | 1016.0 |
| 20260506233532 | 21 | 9 | 3.2 | 17.7 | 0.00 | 0.13 | 0.03 | 58 | 1016.0 |
| 20260506233047 | 21 | 355 | 8.0 | 17.7 | 0.00 | 0.13 | 0.03 | 59 | 1016.0 |
| 20260506232520 | 21 | 301 | 6.4 | 17.7 | 0.00 | 0.13 | 0.03 | 60 | 1016.1 |
| 20260506232015 | 21 | 268 | 9.7 | 19.3 | 0.00 | 0.13 | 0.03 | 59 | 1016.0 |
| 20260506231551 | 22 | 288 | 9.7 | 19.3 | 0.00 | 0.13 | 0.03 | 58 | 1015.9 |
| 20260506231030 | 22 | 278 | 4.8 | 16.1 | 0.00 | 0.13 | 0.03 | 58 | 1015.9 |
| 20260506230545 | 22 | 344 | 8.0 | 19.3 | 0.00 | 0.13 | 0.03 | 58 | 1016.1 |
| 20260506230019 | 21 | 182 | 12.9 | 20.9 | 0.00 | 0.13 | 0.03 | 58 | 1015.9 |
| 20260506225515 | 21 | 304 | 14.5 | 20.9 | 0.00 | 0.13 | 0.03 | 56 | 1016.0 |
| 20260506225029 | 22 | 333 | 6.4 | 17.7 | 0.00 | 0.13 | 0.03 | 56 | 1016.0 |
| 20260506224545 | 22 | 224 | 8.0 | 22.5 | 0.00 | 0.13 | 0.03 | 57 | 1016.1 |
| 20260506224018 | 21 | 26 | 12.9 | 22.5 | 0.00 | 0.13 | 0.03 | 58 | 1016.1 |
| 20260506223513 | 21 | 329 | 8.0 | 22.5 | 0.00 | 0.13 | 0.03 | 59 | 1016.1 |
| 20260506223029 | 21 | 317 | 12.9 | 27.4 | 0.00 | 0.13 | 0.03 | 59 | 1016.2 |
| 20260506222544 | 21 | 275 | 12.9 | 27.4 | 0.00 | 0.13 | 0.03 | 59 | 1016.2 |
| 20260506222021 | 21 | 283 | 11.3 | 25.7 | 0.00 | 0.13 | 0.03 | 59 | 1016.2 |
| 20260506221516 | 21 | 305 | 11.3 | 25.7 | 0.00 | 0.13 | 0.03 | 59 | 1016.1 |
| 20260506221031 | 22 | 319 | 9.7 | 22.5 | 0.00 | 0.13 | 0.03 | 59 | 1016.1 |
| 20260506220548 | 22 | 274 | 6.4 | 25.7 | 0.00 | 0.15 | 0.03 | 59 | 1016.3 |
| 20260506220022 | 21 | 313 | 9.7 | 25.7 | 0.00 | 0.15 | 0.03 | 59 | 1016.3 |
| 20260506215538 | 21 | 224 | 11.3 | 20.9 | 0.00 | 0.15 | 0.03 | 59 | 1016.4 |
| 20260506215013 | 21 | 55 | 11.3 | 22.5 | 0.00 | 0.15 | 0.03 | 60 | 1016.5 |
| 20260506214549 | 21 | 281 | 11.3 | 25.7 | 0.00 | 0.15 | 0.03 | 60 | 1016.4 |
| 20260506214044 | 21 | 300 | 14.5 | 25.7 | 0.00 | 0.15 | 0.03 | 60 | 1016.6 |
| 20260506213523 | 21 | 57 | 8.0 | 22.5 | 0.00 | 0.15 | 0.03 | 61 | 1016.5 |
| 20260506213037 | 21 | 330 | 14.5 | 22.5 | 0.00 | 0.15 | 0.03 | 60 | 1016.5 |
| 20260506212553 | 21 | 298 | 9.7 | 20.9 | 0.00 | 0.15 | 0.03 | 60 | 1016.6 |
| 20260506212027 | 21 | 295 | 11.3 | 24.1 | 0.00 | 0.15 | 0.03 | 60 | 1016.6 |
| 20260506211543 | 21 | 274 | 8.0 | 24.1 | 0.00 | 0.15 | 0.03 | 60 | 1016.6 |
| 20260506211017 | 21 | 298 | 8.0 | 24.1 | 0.00 | 0.15 | 0.03 | 60 | 1016.7 |
| 20260506210530 | 21 | 340 | 11.3 | 24.1 | 0.00 | 0.15 | 0.03 | 59 | 1016.7 |
| 20260506210026 | 22 | 318 | 11.3 | 22.5 | 0.00 | 0.15 | 0.03 | 59 | 1016.6 |
| 20260506205521 | 22 | 272 | 11.3 | 22.5 | 0.00 | 0.15 | 0.03 | 60 | 1016.6 |
| 20260506205016 | 21 | 311 | 9.7 | 25.7 | 0.00 | 0.15 | 0.03 | 60 | 1016.8 |
| 20260506204551 | 21 | 238 | 11.3 | 25.7 | 0.00 | 0.15 | 0.03 | 59 | 1016.8 |
| 20260506204029 | 22 | 286 | 9.7 | 20.9 | 0.00 | 0.15 | 0.03 | 57 | 1016.7 |
| 20260506203523 | 22 | 72 | 9.7 | 22.5 | 0.00 | 0.15 | 0.03 | 56 | 1016.7 |
| 20260506203018 | 22 | 269 | 8.0 | 22.5 | 0.00 | 0.15 | 0.03 | 55 | 1016.6 |
| 20260506202532 | 23 | 291 | 6.4 | 16.1 | 0.00 | 0.15 | 0.03 | 54 | 1016.6 |
| 20260506202028 | 22 | 232 | 6.4 | 16.1 | 0.00 | 0.15 | 0.03 | 54 | 1016.7 |
| 20260506201522 | 23 | 338 | 8.0 | 17.7 | 0.00 | 0.15 | 0.03 | 53 | 1016.8 |
| 20260506201017 | 23 | 313 | 6.4 | 29.0 | 0.00 | 0.15 | 0.03 | 54 | 1016.8 |
| 20260506200532 | 23 | 298 | 12.9 | 29.0 | 0.00 | 0.15 | 0.03 | 51 | 1016.8 |
| 20260506200025 | 23 | 311 | 3.2 | 11.3 | 0.00 | 0.15 | 0.03 | 51 | 1016.9 |
| 20260506195524 | 22 | 103 | 1.6 | 16.1 | 0.00 | 0.15 | 0.03 | 52 | 1017.0 |
| 20260506195020 | 22 | 303 | 6.4 | 16.1 | 0.00 | 0.15 | 0.03 | 51 | 1017.2 |
| 20260506194535 | 22 | 288 | 6.4 | 20.9 | 0.00 | 0.15 | 0.03 | 51 | 1017.2 |
| 20260506194030 | 22 | 250 | 9.7 | 20.9 | 0.00 | 0.15 | 0.03 | 52 | 1017.1 |
| 20260506193525 | 22 | 220 | 4.8 | 17.7 | 0.00 | 0.15 | 0.03 | 53 | 1017.2 |
| 20260506193020 | 22 | 323 | 8.0 | 17.7 | 0.00 | 0.15 | 0.03 | 52 | 1017.2 |
| 20260506192515 | 22 | 281 | 6.4 | 16.1 | 0.00 | 0.15 | 0.03 | 51 | 1017.1 |
| 20260506192014 | 22 | 78 | 4.8 | 12.9 | 0.00 | 0.15 | 0.03 | 49 | 1017.3 |
| 20260506191530 | 22 | 299 | 1.6 | 11.3 | 0.00 | 0.15 | 0.03 | 52 | 1017.3 |
| 20260506191025 | 22 | 325 | 1.6 | 17.7 | 0.00 | 0.15 | 0.03 | 53 | 1017.4 |
| 20260506190520 | 22 | 299 | 6.4 | 17.7 | 0.00 | 0.15 | 0.03 | 52 | 1017.4 |
| 20260506190015 | 22 | 17 | 4.8 | 12.9 | 0.00 | 0.15 | 0.03 | 51 | 1017.4 |
| 20260506185529 | 22 | 69 | 3.2 | 12.9 | 0.00 | 0.15 | 0.03 | 52 | 1017.5 |
| 20260506185024 | 22 | 123 | 4.8 | 17.7 | 0.00 | 0.15 | 0.03 | 51 | 1017.5 |
| 20260506184518 | 22 | 232 | 3.2 | 17.7 | 0.00 | 0.15 | 0.03 | 51 | 1017.6 |
| 20260506184016 | 22 | 59 | 3.2 | 12.9 | 0.00 | 0.15 | 0.03 | 51 | 1017.6 |
| 20260506183531 | 21 | 251 | 0.0 | 14.5 | 0.00 | 0.15 | 0.03 | 54 | 1017.6 |
| 20260506183047 | 21 | 254 | 1.6 | 6.4 | 0.00 | 0.15 | 0.03 | 54 | 1017.7 |
| 20260506182541 | 21 | 161 | 3.2 | 8.0 | 0.00 | 0.15 | 0.03 | 54 | 1017.9 |
| 20260506182015 | 21 | 126 | 1.6 | 16.1 | 0.00 | 0.15 | 0.03 | 54 | 1018.0 |
| 20260506181531 | 21 | 63 | 4.8 | 19.3 | 0.00 | 0.15 | 0.03 | 55 | 1018.1 |
| 20260506181026 | 21 | 24 | 11.3 | 19.3 | 0.00 | 0.15 | 0.03 | 55 | 1018.1 |
| 20260506180522 | 21 | 51 | 8.0 | 16.1 | 0.00 | 0.15 | 0.03 | 56 | 1018.1 |
| 20260506180015 | 20 | 110 | 6.4 | 20.9 | 0.00 | 0.15 | 0.03 | 58 | 1018.1 |
| 20260506175515 | 20 | 5 | 4.8 | 20.9 | 0.00 | 0.15 | 0.03 | 58 | 1018.2 |
| 20260506175030 | 20 | 5 | 1.6 | 8.0 | 0.00 | 0.15 | 0.03 | 60 | 1018.4 |
| 20260506174526 | 20 | 345 | 3.2 | 8.0 | 0.00 | 0.15 | 0.03 | 61 | 1018.4 |
| 20260506174021 | 20 | 219 | 3.2 | 8.0 | 0.00 | 0.15 | 0.03 | 59 | 1018.4 |
| 20260506173537 | 19 | 19 | 3.2 | 8.0 | 0.00 | 0.15 | 0.03 | 61 | 1018.5 |
| 20260506173031 | 18 | 61 | 3.2 | 9.7 | 0.00 | 0.15 | 0.03 | 62 | 1018.6 |
| 20260506172526 | 18 | 360 | 6.4 | 14.5 | 0.00 | 0.15 | 0.03 | 62 | 1018.5 |
| 20260506172022 | 18 | 56 | 4.8 | 20.9 | 0.00 | 0.15 | 0.03 | 61 | 1018.6 |
| 20260506171520 | 18 | 71 | 9.7 | 20.9 | 0.00 | 0.15 | 0.03 | 62 | 1018.6 |
| 20260506171015 | 18 | 77 | 3.2 | 17.7 | 0.00 | 0.15 | 0.03 | 62 | 1018.5 |
| 20260506170531 | 18 | 37 | 1.6 | 11.3 | 0.00 | 0.18 | 0.03 | 63 | 1018.5 |
| 20260506170026 | 18 | 360 | 8.0 | 11.3 | 0.00 | 0.18 | 0.03 | 62 | 1018.6 |
| 20260506165521 | 18 | 13 | 4.8 | 14.5 | 0.03 | 0.18 | 0.03 | 62 | 1018.6 |
| 20260506165037 | 18 | 109 | 4.8 | 16.1 | 0.03 | 0.18 | 0.03 | 61 | 1018.6 |
| 20260506164530 | 18 | 39 | 4.8 | 8.0 | 0.03 | 0.18 | 0.03 | 63 | 1018.6 |
| 20260506164046 | 17 | 268 | 3.2 | 11.3 | 0.03 | 0.18 | 0.03 | 64 | 1018.7 |
| 20260506163520 | 17 | 331 | 4.8 | 14.5 | 0.03 | 0.18 | 0.03 | 64 | 1018.6 |
| 20260506163018 | 17 | 96 | 6.4 | 14.5 | 0.03 | 0.18 | 0.03 | 65 | 1018.7 |
| 20260506162532 | 17 | 59 | 3.2 | 14.5 | 0.03 | 0.18 | 0.03 | 66 | 1018.8 |
| 20260506162048 | 17 | 63 | 3.2 | 9.7 | 0.03 | 0.18 | 0.03 | 68 | 1018.6 |
| 20260506161522 | 17 | 308 | 0.0 | 14.5 | 0.03 | 0.18 | 0.03 | 68 | 1018.8 |
| 20260506161037 | 17 | 96 | 3.2 | 9.7 | 0.03 | 0.18 | 0.03 | 68 | 1018.6 |
| 20260506160531 | 17 | 117 | 1.6 | 9.7 | 0.03 | 0.18 | 0.03 | 68 | 1018.7 |
| 20260506160025 | 16 | 109 | 1.6 | 9.7 | 0.03 | 0.18 | 0.03 | 69 | 1018.6 |
| 20260506155521 | 16 | 82 | 3.2 | 9.7 | 0.00 | 0.15 | 0.00 | 69 | 1018.7 |
| 20260506155036 | 16 | 167 | 3.2 | 11.3 | 0.00 | 0.15 | 0.00 | 70 | 1018.8 |
| 20260506154534 | 16 | 148 | 6.4 | 11.3 | 0.00 | 0.15 | 0.00 | 70 | 1018.8 |
| 20260506154027 | 16 | 217 | 4.8 | 8.0 | 0.00 | 0.15 | 0.00 | 71 | 1018.8 |
| 20260506153523 | 16 | 154 | 3.2 | 6.4 | 0.00 | 0.15 | 0.00 | 71 | 1018.8 |
| 20260506153017 | 15 | 146 | 4.8 | 8.0 | 0.00 | 0.15 | 0.00 | 72 | 1018.9 |
| 20260506152532 | 15 | 138 | 1.6 | 11.3 | 0.00 | 0.15 | 0.00 | 73 | 1018.9 |
| 20260506152028 | 15 | 143 | 4.8 | 11.3 | 0.00 | 0.15 | 0.00 | 72 | 1018.9 |
| 20260506151544 | 15 | 111 | 4.8 | 6.4 | 0.00 | 0.15 | 0.00 | 73 | 1018.8 |
| 20260506151039 | 15 | 139 | 3.2 | 6.4 | 0.00 | 0.15 | 0.00 | 73 | 1019.0 |
| 20260506150553 | 15 | 121 | 0.0 | 6.4 | 0.00 | 0.15 | 0.00 | 75 | 1018.9 |
| 20260506150047 | 14 | 160 | 1.6 | 6.4 | 0.00 | 0.15 | 0.00 | 75 | 1018.9 |
| 20260506145520 | 14 | 151 | 3.2 | 8.0 | 0.00 | 0.15 | 0.00 | 76 | 1018.9 |
| 20260506145019 | 14 | 162 | 1.6 | 8.0 | 0.00 | 0.15 | 0.00 | 77 | 1018.9 |
| 20260506144515 | 13 | 131 | 3.2 | 4.8 | 0.00 | 0.15 | 0.00 | 78 | 1018.9 |
| 20260506144030 | 13 | 127 | 3.2 | 4.8 | 0.00 | 0.15 | 0.00 | 78 | 1018.8 |
| 20260506143525 | 13 | 136 | 3.2 | 6.4 | 0.00 | 0.15 | 0.00 | 78 | 1018.9 |
| 20260506143039 | 13 | 137 | 1.6 | 6.4 | 0.00 | 0.15 | 0.00 | 79 | 1018.9 |
| 20260506142532 | 13 | 156 | 1.6 | 4.8 | 0.00 | 0.15 | 0.00 | 81 | 1018.9 |
| 20260506142027 | 12 | 80 | 3.2 | 4.8 | 0.00 | 0.15 | 0.00 | 83 | 1018.9 |
| 20260506141523 | 12 | 355 | 0.0 | 0.0 | 0.00 | 0.15 | 0.00 | 85 | 1018.9 |
| 20260506141017 | 11 | 355 | 0.0 | 0.0 | 0.00 | 0.15 | 0.00 | 87 | 1018.8 |
| 20260506140517 | 11 | 355 | 0.0 | 1.6 | 0.00 | 0.15 | 0.00 | 87 | 1018.8 |
| 20260506140031 | 11 | 355 | 0.0 | 1.6 | 0.00 | 0.15 | 0.00 | 89 | 1018.8 |
| 20260506135526 | 11 | 355 | 0.0 | 0.0 | 0.00 | 0.15 | 0.00 | 90 | 1018.8 |
| 20260506135021 | 11 | 355 | 0.0 | 0.0 | 0.00 | 0.15 | 0.00 | 91 | 1018.8 |
| 20260506134517 | 10 | 355 | 0.0 | 0.0 | 0.00 | 0.15 | 0.00 | 92 | 1018.7 |
| 20260506134032 | 10 | 355 | 0.0 | 0.0 | 0.00 | 0.15 | 0.00 | 92 | 1018.6 |
| 20260506133548 | 10 | 355 | 0.0 | 1.6 | 0.00 | 0.15 | 0.00 | 93 | 1018.6 |
| 20260506133022 | 10 | 355 | 0.0 | 1.6 | 0.00 | 0.15 | 0.00 | 93 | 1018.6 |
| 20260506132521 | 9 | 355 | 0.0 | 0.0 | 0.00 | 0.15 | 0.00 | 94 | 1018.5 |
| 20260506132015 | 9 | 355 | 0.0 | 0.0 | 0.00 | 0.15 | 0.00 | 93 | 1018.6 |
| 20260506131530 | 9 | 355 | 0.0 | 0.0 | 0.00 | 0.15 | 0.00 | 93 | 1018.6 |
| 20260506131025 | 9 | 355 | 0.0 | 0.0 | 0.00 | 0.15 | 0.00 | 93 | 1018.6 |
| 20260506130520 | 9 | 355 | 0.0 | 0.0 | 0.00 | 0.15 | 0.00 | 93 | 1018.4 |
| 20260506130014 | 9 | 355 | 0.0 | 0.0 | 0.00 | 0.15 | 0.00 | 92 | 1018.2 |
| 20260506125529 | 9 | 355 | 0.0 | 0.0 | 0.00 | 0.15 | 0.00 | 92 | 1018.3 |
| 20260506125024 | 9 | 355 | 0.0 | 0.0 | 0.00 | 0.15 | 0.00 | 92 | 1018.2 |
| 20260506124519 | 9 | 355 | 0.0 | 0.0 | 0.00 | 0.15 | 0.00 | 92 | 1018.2 |
| 20260506124018 | 9 | 355 | 0.0 | 0.0 | 0.00 | 0.15 | 0.00 | 92 | 1018.1 |
| 20260506123534 | 9 | 355 | 0.0 | 0.0 | 0.00 | 0.15 | 0.00 | 92 | 1018.1 |
| 20260506123027 | 9 | 355 | 0.0 | 0.0 | 0.00 | 0.15 | 0.00 | 92 | 1018.0 |
| 20260506122522 | 9 | 355 | 0.0 | 0.0 | 0.00 | 0.15 | 0.00 | 92 | 1018.1 |
| 20260506122018 | 9 | 355 | 0.0 | 0.0 | 0.00 | 0.15 | 0.00 | 92 | 1017.9 |
| 20260506121513 | 9 | 355 | 0.0 | 0.0 | 0.00 | 0.15 | 0.00 | 92 | 1017.9 |
| 20260506121028 | 9 | 355 | 0.0 | 0.0 | 0.00 | 0.15 | 0.00 | 92 | 1018.0 |
| 20260506120522 | 9 | 355 | 0.0 | 0.0 | 0.00 | 0.15 | 0.00 | 92 | 1017.9 |
| 20260506120017 | 9 | 355 | 0.0 | 0.0 | 0.00 | 0.15 | 0.00 | 91 | 1017.9 |
| 20260506115512 | 9 | 355 | 0.0 | 0.0 | 0.00 | 0.15 | 0.00 | 91 | 1017.8 |
| 20260506115032 | 10 | 355 | 0.0 | 0.0 | 0.00 | 0.15 | 0.00 | 92 | 1017.8 |
| 20260506114527 | 10 | 355 | 0.0 | 0.0 | 0.00 | 0.15 | 0.00 | 92 | 1017.8 |
| 20260506114023 | 10 | 355 | 0.0 | 0.0 | 0.00 | 0.15 | 0.00 | 92 | 1017.8 |
| 20260506113539 | 10 | 355 | 0.0 | 0.0 | 0.00 | 0.15 | 0.00 | 92 | 1017.8 |
| 20260506113032 | 10 | 355 | 0.0 | 0.0 | 0.00 | 0.15 | 0.00 | 92 | 1017.9 |
| 20260506112527 | 10 | 355 | 0.0 | 0.0 | 0.00 | 0.15 | 0.00 | 92 | 1017.7 |
| 20260506112022 | 10 | 355 | 0.0 | 0.0 | 0.00 | 0.15 | 0.00 | 92 | 1017.9 |
| 20260506111517 | 10 | 355 | 0.0 | 0.0 | 0.00 | 0.15 | 0.00 | 92 | 1017.8 |
| 20260506111032 | 10 | 355 | 0.0 | 0.0 | 0.00 | 0.15 | 0.00 | 93 | 1017.9 |
| 20260506110531 | 10 | 355 | 0.0 | 0.0 | 0.00 | 0.18 | 0.00 | 93 | 1017.8 |